Погода в Бузулуке

Погода в Бузулуке : погода сейчас, прогноз погоды и архив. Всё, что Вы хотите узнать о погоде в Бузулуке!

Хотите узнать прогноз погоды в Бузулуке? Тогда Вам сюда: Погода в Бузулуке

Поиск расширенной информации на нашем сайте:

Другие новости

Новости СМИ2

Главная страница сайта

Новости сайта

03.07.2017

Напоминаем, что на нашем специализированном сайте Метеоцентр.Азия вы можете получить высокодетализированные автоматические прогнозы погоды по пунктам России, СНГ и мира в авиационном формате (включающие направление и скорость ветра, видимость, явления погоды, количество и форму облачности, нижнюю и верхнюю границу облачности).

Рекомендуем: металлический сайдинг под бревно

Погода в Бузулуке - сегодня

Время (UTC), дата Ветер
(°,м/с) 
Видим.   Явления Облачность Т
(°С)
Тd
(°С)
f(%) Тe
(°С)
Pmin
(гПа)
dP
(гПа)
Po
(мм)
O2
(г/м3)
Тmin Tmax R s Состояние
почвы
00 19.11.17 190 (Ю) 10 км    8/0 средняя, верхняя 
[Ac trans|Ci fib]
+0.1 -0.8 94 -2  1028  0.1  763  308           
03 19.11.17 180 (Ю) 10 км    8/0 средняя, верхняя 
[Ac trans|Ci fib]
+0.2 -0.5 95 -1  1028.1  0.1  763  307  -0.4        замёрзшая 
06 19.11.17 190 (Ю) 10 км    8/4 300 м средняя 
[Sc|Ac trans]
+0.8 +0.1 95 1028.5  0.5  764  307           
09 19.11.17 150 (ЮВ) 10 км    8/5 300 м средняя 
[Sc|Ac trans]
+2.7 -0.5 79 +1  1027.5  -1  763  305           
12 19.11.17 140 (ЮВ) 10 км    4/3 300 м верхняя 
[Sc|Ci fib]
+1.8 -0.5 85 1026.2  -1.4  762  305           
15 19.11.17 130 (ЮВ) 10 км    10/5 300 м средняя 
[Sc|As op]
+1.8 -0.4 85 -1  1025.5  -1.4  762  305    +2.8       
18 19.11.17 150 (ЮВ) 4{11}  10 км    10/3 300 м средняя 
[Sc|As op]
+2.3 -0.6 81 1024.3  -1.4  761  304           
21 19.11.17 150 (ЮВ) 10 км    10/10 300 м 
[Ac As]
+2.1 -0 86 +1  1024.1  -0.2  761  304           
00 20.11.17 130 (ЮВ) 10 км    10/5 300 м средняя 
[Sc|As op]
+2.1 +0.5 89 +1  1023.6  -0.5  760  304           
03 20.11.17 140 (ЮВ) 10 км    10/3 300 м средняя 
[Sc|As op]
+2 +0.3 88 +1  1023.2  -0.5  760  304  +1.8        влажная 
06 20.11.17 150 (ЮВ) 10 км    9/5 600 м средняя 
[Sc|Ac trans]
+1.9 -0.3 85 1023.4  0.3  760  304  +1.4         
09 20.11.17 150 (ЮВ) 10 км    9/0 средняя, верхняя 
[Ac trans|Ci fib]
+4.1 -0.6 71 +2  1022.5  -0.8  759  302           
12 20.11.17 130 (ЮВ) 10 км    9/0 средняя, верхняя 
[Ac trans|Ci fib]
+3.7 -0.1 76 +2  1021.9  -0.5  759  302           
15 20.11.17 130 (ЮВ) 10 км    4/0 верхняя 
[Ci fib]
+2.4 +0 84 +2  1021.8  -0.2  759  303    +4.6       
18 20.11.17 130 (ЮВ) 10 км    3/0 верхняя 
[Ci fib]
+1.5 -0.9 84 +1  1021.2  -0.6  758  304           
21 20.11.17 130 (ЮВ) 10 км    ясно 
+1.8 -3.1 70 1019.7  -1.5  757  303           
00 21.11.17 110 (В) 10 км    10/0 средняя 
[As op]
+1.7 -4.4 64 1018.1  -1.6  756  303           
03 21.11.17 120 (ЮВ) 10 км    10/0 средняя 
[As op]
+1.8 -4.9 61 1016.5  -1.6  755  303  +1        влажная 
06 21.11.17 120 (ЮВ) 10 км    8/3 300 м средняя 
[Sc|As op]
+1.9 -4 65 1015.5  -1  754  302           
09 21.11.17 120 (ЮВ) 5{10}  10 км    8/3 300 м средняя 
[Sc|Ac und]
+3.8 -3.4 59 +1  1013.7  -1.7  753  300           
12 21.11.17 110 (В) 10 км    8/3 300 м средняя 
[Sc|Ac trans]
+4.6 -3 58 +2  1011.9  -1.7  752  298           
15 21.11.17 060 (СВ) 10 км    ясно 
+1.3 -2.3 77 +1  1011.9  0.1  752  302    +4.7       
18 21.11.17 100 (В) 10 км    10/0 средняя 
[As op]
+2.9 -1.3 74 +2  1010.3  -1.6  750  299           
21 21.11.17 100 (В) 10 км    10/5 300 м средняя 
[Sc|As op]
+3.8 -0.8 72 +2  1009.5  -0.7  750  298           
00 22.11.17 120 (ЮВ) 10 км    10/5 300 м средняя 
[Sc|As op]
+4.2 -0.2 73 +2  1008.9  -0.5  749  297           
Время (UTC), дата Ветер
(°,м/с) 
Видим.   Явления Облачность Т
(°С)
Тd
(°С)
f(%) Тe
(°С)
Pmin
(гПа)
dP
(гПа)
Po
(мм)
O2
(г/м3)
Тmin Tmax R s Состояние
почвы

Для получения пояснительной информации подведите курсор к названию столбца.

ПОГОДА в Бузулуке - архив

Всё, что Вы хотите узнать о погоде в Бузулуке - удобно и подробно!

Выберите нужную дату (начиная с 1 января 2015* года) и нажмите кнопку "Найти".
Будут отображены архивные сводки погоды по пункту Бузулук, начиная с указанной даты.


Отображать данные в формате CSV (для использования в таблицах Excel)


Внимание! Наш архив погоды предназначен исключительно для личного некоммерческого использования в познавательных целях. Если Вам необходимы официальные справки о состоянии погоды (для производственных, юридических, коммерческих и т.п. целей), обращайтесь в органы Росгидромета.

*Примечание: данная дата относится к архиву по метеостанциям СССР (Россия, СНГ, Балтия).
Архив по метеостанциям Зарубежной Европы и Азии (кроме Китая) хранится 10 дней, по другим регионам земного шара (Китай, Африка, Америка, Австралия, Океания) - 1 день.

Бузулук - район местоположения метеостанции


Название, широта, долгота, высота метеостанции:
Бузулук 52.8°ш. 52.2°д. 80 м над ур. моря [Российская Федерация]

Дополнительная информация

В oтличие oт бoльшинства пoгoдных сайтoв мы публикуем пoдрoбную метеoинфoрмацию в детальнoм прoфессиoнальнoм фoрмате.

Характеристики температуры и влажнoсти вoздуха измеряются на высoте 2 м в тени вдали oт зданий и деревьев.
Скoрoсть ветра измеряется на высoте 10 м (на урoвне рoста челoвека скoрoсть ветра ниже в 1.5-2 раза). Если метеoстанция нахoдится в гoрoде или в лесу, тo скoрoсть ветра занижена на 2-4 м/с пo сравнению с oткрытым местoм. Скoрoсть ветра над акватoриями крупных рек и oзёр, а также на вершинах хoлмoв на 2-5 м/с выше, чем в oбычных услoвиях.
Атмoсфернoе давление в разных тoчках местнoсти мoжет значительнo oтличаться oт давления на метеoстанции, в зависимoсти oт услoвий рельефа (при пoдъёме на 10 м давление пoнижается примернo на 1 мм рт.ст.).